Погода в Буныреве

Россия / Тульская область     54°34′15″N   37°09′03″E
темп.,
°C
ветер,
м/с
пор.,
м/с
влажн.,
%
обл.,
%
осадки,
мм/ч
давл.,
гПа
погр.,
м
17 мая, пн
пн1700:00+14вюв228090 0.0 101319
03:00+13в33855 0.0 101441
06:00+14вюв4118981 0.3 1013244
09:00+19в7118354 0.9 1012462
12:00+24вюв7106933 0.0 1011866
15:00+25вюв7106487 0.0 10091351
18:00+22вюв7136997 0.0 1009489
21:00+19вюв715754 0.0 1009440
18 мая, вт
вт1800:00+18юв6177551 0.0 1008431
03:00+15вюв513772 0.0 1008259
06:00+15вюв512816 0.0 1008239
09:00+19юв6126944 0.0 1008468
12:00+24юв712596 0.0 1008808
15:00+24вюв71161100 0.0 10061068
18:00+22вюв71569100 0.0 1006734
21:00+19юв6137599 0.0 1006425
19 мая, ср
ср1900:00+16ююв3587100 0.0 100793
03:00+15юв3988100 0.0 1007240
06:00+15юв41089100 0.0 1007336
09:00+19юв487170 0.0 1008623
12:00+21ююв61660100 0.1 10082083
15:00+22юв586568 0.6 10071343
18:00+19ююв487974 2.2 1007469
21:00+16юв22875 2.5 100713
20 мая, чт
чт2000:00+15в11895 0.3 100610
03:00+14всв2297100 4.0 100549
06:00+15юв4109548 0.0 1005418
09:00+17ююв578033 0.0 1005772
12:00+16ю588351 0.3 1005736
15:00+18ю797156 0.8 10051268
18:00+16ю587770 0.6 1004876
21:00+13ююв4108914 0.9 1004212
21 мая, пт
пт2100:00+10ю6129483 0.0 1005589
03:00+9ю7139185 0.1 1005736
06:00+9ю81490100 0.0 1005784
09:00+10ююз81384100 0.1 10061153
12:00+12ююз91579100 0.3 10071452
15:00+9юз81387100 0.5 10081159
18:00+9юз81286100 0.3 10091132
21:00+8зюз81394100 0.8 1012839